Location: Estrella Escondido
(31.8318°N, 104.8079°W)
Time: 08:53:18
(UTC-06:00)

OTV 5 (USA 277) - Visible Passes

Search period start: 22 July 2018 00:00
Search period end: 01 August 2018 00:00
Orbit: 312 x 321 km, 54.5° (Epoch: 05 July)

Date Brightness Start Highest point End Pass type
(mag) Time Alt. Az. Time Alt. Az. Time Alt. Az.
26 Jul ? 04:54:29 15° SSE 04:55:49 20° SE 04:57:55 10° ENE visible
27 Jul ? 05:08:47 26° SW 05:10:09 85° SE 05:12:51 10° NE visible
28 Jul ? 05:23:00 15° W 05:24:38 24° NW 05:26:56 10° NNE visible
29 Jul ? 04:06:16 20° ENE 04:06:16 20° ENE 04:07:22 10° ENE visible
30 Jul ? 04:20:20 27° NNE 04:20:20 27° NNE 04:21:50 10° NNE visible
31 Jul ? 04:34:20 14° NNW 04:34:20 14° NNW 04:35:29 10° N visible
